CW3683 Weather Reports


time (UTC)temp
C
wind
direction
speed
KPH
gust
KPH
rain 1hr
cm
rain 24hr
cm
rain mn
cm
humidity
%
barometer
mb
20260505075016 12 248 1.6 12.9 0.00 0.00 0.00 89 1011.8
20260505074016 12 0.0 6.4 0.00 0.00 0.00 88 1011.8
20260505073016 13 0.0 8.0 0.00 0.00 0.00 88 1011.7
20260505072016 13 0.0 3.2 0.00 0.00 0.00 87 1011.5
20260505071016 13 0.0 1.6 0.00 0.00 0.00 86 1011.4
20260505070016 13 0.0 1.6 0.00 0.00 0.00 86 1011.3
20260505065015 13 0.0 1.6 0.00 0.00 0.00 85 1011.2
20260505064015 13 0.0 1.6 0.00 0.00 0.00 84 1011.1
20260505063015 14 0.0 3.2 0.00 0.00 0.00 83 1011.0
20260505062015 14 0.0 3.2 0.00 0.00 0.00 83 1010.9
20260505061015 15 0.0 4.8 0.00 0.00 0.00 82 1010.7
20260505060015 15 0.0 0.0 0.00 0.00 0.00 81 1010.6
20260505055035 15 0.0 1.6 0.00 0.00 0.00 80 1010.5
20260505054015 15 0.0 4.8 0.00 0.00 0.00 80 1010.5
20260505053015 16 0.0 4.8 0.00 0.00 0.00 79 1010.4
20260505052015 16 225 1.6 6.4 0.00 0.00 0.00 78 1010.2
20260505051017 16 0.0 3.2 0.00 0.00 0.00 78 1010.1
20260505041016 18 225 1.6 4.8 0.00 0.00 0.00 73 1009.7
20260505040017 18 0.0 3.2 0.00 0.00 0.00 72 1009.5
20260505035016 18 225 3.2 9.7 0.00 0.00 0.00 70 1009.2
20260505034017 19 225 1.6 8.0 0.00 0.00 0.00 69 1009.1
20260505033057 20 225 1.6 9.7 0.00 0.00 0.00 66 1009.1
20260505032016 21 0.0 6.4 0.00 0.00 0.00 64 1009.1
20260505031016 21 0.0 3.2 0.00 0.00 0.00 62 1009.0
20260505030016 21 0.0 1.6 0.00 0.00 0.00 60 1008.9
20260505025036 22 0.0 3.2 0.00 0.00 0.00 59 1008.9
20260505024037 22 0.0 0.0 0.00 0.00 0.00 58 1008.7
20260505023016 22 0.0 1.6 0.00 0.00 0.00 56 1008.7
20260505022036 23 0.0 0.0 0.00 0.00 0.00 55 1008.7
20260505021017 24 0.0 1.6 0.00 0.00 0.00 55 1008.8
20260505020017 24 225 1.6 9.7 0.00 0.00 0.00 55 1008.8
20260505015017 24 180 1.6 9.7 0.00 0.00 0.00 54 1008.7
20260505014036 25 225 1.6 6.4 0.00 0.00 0.00 52 1008.8
20260505013016 25 225 1.6 4.8 0.00 0.00 0.00 50 1008.8
20260505012016 25 225 3.2 8.0 0.00 0.00 0.00 48 1008.8
20260505011016 26 225 1.6 8.0 0.00 0.00 0.00 46 1008.8
20260505010016 26 0.0 1.6 0.00 0.00 0.00 46 1008.9
20260505005016 27 0.0 8.0 0.00 0.00 0.00 44 1008.8
20260505004016 27 0.0 4.8 0.00 0.00 0.00 43 1008.9
20260505003016 27 225 1.6 6.4 0.00 0.00 0.00 42 1008.9
20260505002016 27 158 1.6 8.0 0.00 0.00 0.00 42 1009.0
20260505001016 27 248 1.6 8.0 0.00 0.00 0.00 42 1009.0
20260505000016 28 0.0 4.8 0.00 0.00 0.00 42 1009.0
20260504235016 27 0.0 4.8 0.00 0.00 0.00 42 1009.0
20260504234016 27 203 1.6 4.8 0.00 0.00 0.00 41 1009.1
20260504233016 27 225 1.6 9.7 0.00 0.00 0.00 42 1009.1
20260504232056 27 225 1.6 6.4 0.00 0.00 0.00 41 1009.1
20260504231016 27 225 1.6 9.7 0.00 0.00 0.00 41 1009.0
20260504230016 27 203 1.6 8.0 0.00 0.00 0.00 41 1009.1
20260504225016 27 225 1.6 3.2 0.00 0.00 0.00 40 1009.3
20260504224016 27 225 1.6 11.3 0.00 0.00 0.00 40 1009.5
20260504223016 27 203 1.6 6.4 0.00 0.00 0.00 39 1009.5
20260504222016 26 225 3.2 12.9 0.00 0.00 0.00 38 1009.7
20260504221016 26 203 1.6 6.4 0.00 0.00 0.00 39 1009.8
20260504220016 26 225 1.6 6.4 0.00 0.00 0.00 43 1009.8
20260504215016 26 0.0 4.8 0.00 0.00 0.00 46 1009.9
20260504214016 26 225 1.6 6.4 0.00 0.00 0.00 49 1009.9
20260504213016 26 225 1.6 6.4 0.00 0.00 0.00 47 1009.8
20260504212016 26 0.0 4.8 0.00 0.00 0.00 48 1010.1
20260504211016 26 225 1.6 8.0 0.00 0.00 0.00 46 1010.1
20260504210016 26 270 1.6 4.8 0.00 0.00 0.00 47 1010.1
20260504205016 25 225 1.6 9.7 0.00 0.00 0.00 46 1010.0
20260504204036 25 225 1.6 11.3 0.00 0.00 0.00 43 1010.1
20260504203016 25 225 3.2 11.3 0.00 0.00 0.00 40 1010.1
20260504202016 25 0.0 6.4 0.00 0.00 0.00 46 1010.1
20260504201016 25 225 1.6 8.0 0.00 0.00 0.00 48 1010.0
20260504200036 25 248 1.6 8.0 0.00 0.00 0.00 49 1010.1
20260504195016 25 225 1.6 9.7 0.00 0.00 0.00 47 1010.1
20260504194036 24 225 1.6 8.0 0.00 0.00 0.00 46 1010.0
20260504193016 25 225 1.6 8.0 0.00 0.00 0.00 44 1010.2
20260504192015 24 0.0 4.8 0.00 0.00 0.00 46 1010.2
20260504191016 24 225 1.6 8.0 0.00 0.00 0.00 46 1010.4
20260504190015 23 0.0 3.2 0.00 0.00 0.00 48 1010.6
20260504185055 23 0.0 6.4 0.00 0.00 0.00 48 1010.6
20260504184015 23 0.0 3.2 0.00 0.00 0.00 48 1010.6
20260504183015 23 0.0 1.6 0.00 0.00 0.00 49 1010.5
20260504182015 23 0.0 3.2 0.00 0.00 0.00 51 1010.5
20260504181015 22 225 1.6 6.4 0.00 0.00 0.00 52 1010.6
20260504180016 22 0.0 3.2 0.00 0.00 0.00 52 1010.5
20260504175017 22 0.0 4.8 0.00 0.00 0.00 52 1010.5
20260504174016 22 0.0 4.8 0.00 0.00 0.00 54 1010.5
20260504173015 21 0.0 1.6 0.00 0.00 0.00 56 1010.5
20260504172015 20 0.0 4.8 0.00 0.00 0.00 59 1010.5
20260504171015 20 0.0 1.6 0.00 0.00 0.00 61 1010.5
20260504151015 15 0.0 0.0 0.00 0.00 0.00 78 1009.9
20260504141015 12 0.0 0.0 0.00 0.00 0.00 86 1009.6
20260504081039 14 0.0 0.0 0.00 0.00 0.00 73 1008.9